Location: Colonia Mina de C?rbuni
(46.1667°N, 22.7167°E)
Time: 15:06:05
(UTC+00:00)

Vanguard 1 Rocket - Pass Details

Date: 18 April 2024
Orbit: 650 x 4220 km, 34.3° (Epoch: 22 May)

Event Time Altitude Azimuth Distance (km) Brightness Sun altitude
Rises 21:19:29 0° 263° (W) 4,112 10.9 -30.6°
Reaches altitude 10° 21:22:02 10° 254° (WSW) 3,464 10.4 -30.7°
Enters shadow 21:27:04 31° 221° (SW) 2,780 9.5 -31.0°
